Weather observations for the past three days for
Greater Binghamton Airport
Imperial (Metric)
Date Time (edt) Wind (mph) Vis. (mi.) Weather Sky Cond. Temperature (ºF) Relative Humidity Wind Chill (°F) Heat Index (°F) Pressure Precipitation (in)
Air Dwpt 6 hour altimeter (in) sea level (mb) 1 hr 3 hr 6 hr
Max. Min.
16 05:53 Calm 10.00 Fair CLR 66 63 90% 29.85 1009.6
16 04:53 W 3 10.00 Fair CLR 64.9 64 97% 29.85 1009.6
16 03:53 Calm 10.00 Fair CLR 64.9 63 93% 29.84 1009.3
16 02:53 W 8 10.00 Fair CLR 66.9 64 91% 29.84 1009.1
16 01:53 W 9 10.00 Mostly Cloudy SCT032 SCT039 BKN050 66.9 64.9 69.1 66.9 93% 29.84 1009.2 0.13
16 00:53 W 12 10.00 Overcast OVC045 69.1 66 90% 29.85 1009.2
15 23:53 SW 9 10.00 Mostly Cloudy BKN045 68 66.9 96% 29.83 1008.9
15 22:53 SW 9 10.00 Mostly Cloudy BKN060 68 66 93% 29.84 1009.1 0.13
15 21:53 S 7 10.00 Partly Cloudy FEW036 SCT110 66.9 66 97% 29.84 1009.3 0.09
15 20:53 SW 5 2.00 Rain Fog/Mist FEW032 BKN050 OVC090 66.9 64.9 93% 29.86 1010.2 0.04
15 19:53 NW 10 10.00 Thunderstorm FEW042 BKN100 69.1 66 87.1 68 90% 29.85 1009.7 0.21 0.21
15 18:53 NW 20 G 40 10.00 Thunderstorm in Vicinity FEW046 SCT065 BKN085 78.1 62.1 58% 80 29.81 1008.2
15 17:53 S 12 G 22 10.00 Fair CLR 84.9 66 53% 87 29.79 1007.4
15 16:53 SW 8 10.00 Fair CLR 87.1 66.9 51% 90 29.81 1007.8
15 15:53 SW 9 10.00 Fair CLR 87.1 66 50% 89 29.84 1008.9
15 14:53 SW 9 G 16 10.00 A Few Clouds FEW042 87.1 66.9 51% 90 29.89 1010.5
15 13:53 SW 8 10.00 Fair CLR 84 66.9 84.9 70 57% 87 29.91 1011.2
15 12:53 W 9 10.00 A Few Clouds FEW032 84 66.9 57% 87 29.92 1011.8
15 11:53 Vrbl 5 10.00 Partly Cloudy SCT027 81 69.1 67% 84 29.93 1012.4
15 10:53 SW 7 10.00 A Few Clouds FEW023 FEW031 79 69.1 72% 82 29.95 1012.6
15 09:53 W 5 10.00 Fair CLR 78.1 68 71% 80 29.96 1013.0
15 08:53 Calm 10.00 Fair CLR 72 69.1 91% 29.96 1013.2
15 06:53 W 3 10.00 Mostly Cloudy FEW040 SCT085 BKN110 69.1 66.9 93% 29.95 1012.8 0.17
15 05:53 N 3 10.00 Overcast BKN041 BKN050 OVC060 70 66.9 90% 29.94 1012.5 0.01
15 04:53 SW 6 10.00 Overcast BKN050 OVC065 73 63 71% 29.94 1012.2
15 03:53 S 3 10.00 A Few Clouds FEW065 73.9 61 64% 29.93 1012.0
15 02:53 S 3 10.00 Mostly Cloudy FEW070 BKN090 73.9 63 69% 29.93 1012.1
15 01:53 S 5 10.00 Overcast BKN095 OVC110 73 64.9 80.1 71.1 76% 29.95 1012.7
15 00:53 S 5 10.00 Overcast OVC110 73 63 71% 29.96 1013.2
14 23:53 S 3 10.00 Overcast FEW065 OVC085 71.1 66 84% 29.97 1013.6
14 22:53 NW 5 10.00 Overcast BKN075 OVC090 77 62.1 60% 79 29.97 1013.6
14 21:53 NW 9 10.00 Overcast OVC085 78.1 62.1 58% 80 29.98 1013.9
14 20:53 S 3 10.00 Mostly Cloudy BKN110 80.1 61 52% 81 29.97 1013.6
14 19:53 S 3 10.00 Fair CLR 81 61 84.9 81 51% 82 29.99 1014.3
14 18:53 SW 5 10.00 Fair CLR 82.9 60.1 46% 83 29.99 1014.4
14 17:53 SW 5 10.00 Fair CLR 82.9 59 44% 83 29.99 1014.5
14 16:53 W 6 10.00 Fair CLR 84.9 59 42% 85 30 1014.5
14 15:53 W 6 10.00 Fair CLR 84 60.1 44% 84 30.02 1015.3
14 14:53 W 6 10.00 A Few Clouds FEW050 84 61 46% 84 30.04 1016.0
14 13:53 W 6 10.00 A Few Clouds FEW044 FEW055 82.9 63 82.9 69.1 51% 84 30.06 1016.7
14 12:53 Calm 10.00 Mostly Cloudy SCT040 BKN050 78.1 62.1 58% 80 30.09 1017.9
14 11:53 S 6 10.00 Fair CLR 79 61 54% 80 30.1 1018.1
14 10:53 SE 5 10.00 Fair CLR 75.9 60.1 58% 78 30.11 1018.4
14 09:53 NE 5 10.00 Fair CLR 75 59 58% 77 30.12 1018.7
14 08:53 Calm 10.00 Fair CLR 73 60.1 64% 30.13 1019.0
14 07:53 Calm 10.00 A Few Clouds FEW050 69.1 64 69.1 62.1 84% 30.13 1019.0
14 06:53 Calm 10.00 Fair CLR 66 63 90% 30.12 1018.8
14 05:53 Calm 10.00 Fair CLR 63 60.1 90% 30.12 1018.9
14 04:53 NE 3 10.00 A Few Clouds FEW050 68 61 78% 30.13 1019.0
14 03:53 Calm 10.00 Fair CLR 68 61 78% 30.13 1019.1
14 02:53 Calm 10.00 Fair CLR 66 62.1 87% 30.14 1019.3
14 01:53 Calm 10.00 Fair CLR 68 62.1 78.1 66.9 81% 30.14 1019.4
14 00:53 Calm 10.00 Fair CLR 66.9 62.1 84% 30.15 1019.9
13 23:53 NE 6 10.00 Fair CLR 71.1 62.1 73% 30.15 1019.6
13 22:53 N 3 10.00 Fair CLR 73.9 62.1 67% 30.15 1019.7
13 21:53 N 5 10.00 Fair CLR 75 61 62% 77 30.16 1020.0
13 20:53 N 5 10.00 Fair CLR 75 61 62% 77 30.16 1020.2
13 19:53 NW 7 10.00 Fair CLR 78.1 61 84.9 78.1 56% 80 30.16 1020.0
13 18:53 NW 9 10.00 Fair CLR 81 61 51% 82 30.15 1019.9
13 17:53 NW 8 10.00 Fair CLR 82 59 46% 82 30.15 1019.8
13 16:53 N 9 10.00 Fair CLR 82.9 59 44% 83 30.15 1019.8
13 15:53 N 12 G 16 10.00 Fair CLR 84 63 49% 85 30.15 1019.9
13 14:53 NW 13 10.00 Partly Cloudy SCT050 82.9 62.1 49% 84 30.16 1020.1
13 13:53 Vrbl 7 10.00 Fair CLR 82.9 62.1 84 69.1 49% 84 30.17 1020.3
13 12:53 NW 6 10.00 Partly Cloudy FEW043 SCT050 SCT070 82 64.9 56% 84 30.19 1020.9
13 11:53 NW 6 10.00 Partly Cloudy FEW030 SCT035 80.1 66.9 64% 82 30.2 1021.4
13 10:53 Vrbl 3 10.00 Fair CLR 79 66.9 67% 81 30.2 1021.6
13 09:53 W 5 10.00 Fair CLR 75 66.9 76% 76 30.2 1021.6
13 08:53 S 5 10.00 Fair CLR 71.1 64.9 81% 30.21 1022.0
13 07:53 S 6 10.00 Fair CLR 69.1 64.9 69.1 64 87% 30.21 1022.1
13 06:53 S 5 10.00 Mostly Cloudy BKN050 66 64 93% 30.21 1022.2
Date Time (edt) Wind (mph) Vis. (mi.) Weather Sky Cond. Air Dwpt Max. Min. Relative Humidity Wind Chill (°F) Heat Index (°F) altimeter (in) sea level (mb) 1 hr 3 hr 6 hr
6 hour
Temperature (ºF) Pressure Precipitation (in)